Hourly Data Report for October 01, 2018

TORONTO CITY
ONTARIO
Current Station Operator: ECCC - MSC

43°40'00.000" N
79°24'00.000" W
112.50 m
6158355
71508
XTO

Download Data

Hourly Data (October 2018)
Hourly Data Report for October 1, 2018
TIME
LST
Temp Definition
°C
Dew Point Definition
°C
Rel Hum Definition
%
Precip. Amount Definition
mm

Wind Dir Definition
10's deg

Wind Spd Definition
km/h
Visibility Definition
km
Stn Press Definition
kPa
Hmdx Definition


Wind Chill Definition


Weather Definition


00:00 10.6 9.0 90 2.7 LegendMM LegendMM   101.10     LegendNANA
01:00 10.2 8.6 90 1.2 LegendMM LegendMM   101.11     LegendNANA
02:00 10.0 8.4 90 1.3 LegendMM LegendMM   101.16     LegendNANA
03:00 9.7 8.2 90 2.9 LegendMM LegendMM   101.14     LegendNANA
04:00 9.3 7.6 89 1.9 LegendMM LegendMM   101.21     LegendNANA
05:00 9.4 7.6 88 1.2 LegendMM LegendMM   101.25     LegendNANA
06:00 9.3 7.2 87 0.3 LegendMM LegendMM   101.31     LegendNANA
07:00 9.2 7.1 87 0.6 LegendMM LegendMM   101.31     LegendNANA
08:00 9.1 6.7 85 0.0 LegendMM LegendMM   101.42     LegendNANA
09:00 8.4 5.9 84 0.0 LegendMM LegendMM   101.51     LegendNANA
10:00 9.0 5.2 77 0.0 LegendMM LegendMM   101.46     LegendNANA
11:00 9.3 4.7 73 0.0 LegendMM LegendMM   101.47     LegendNANA
12:00 10.0 4.7 70 0.0 LegendMM LegendMM   101.46     LegendNANA
13:00 10.6 4.6 67 0.0 LegendMM LegendMM   101.42     LegendNANA
14:00 10.7 5.1 68 0.0 LegendMM LegendMM   101.36     LegendNANA
15:00 10.4 6.7 78 0.0 LegendMM LegendMM   101.34     LegendNANA
16:00 9.9 8.0 88 0.2 LegendMM LegendMM   101.29     LegendNANA
17:00 10.0 8.1 88 0.0 LegendMM LegendMM   101.23     LegendNANA
18:00 10.6 8.3 86 0.0 LegendMM LegendMM   101.13     LegendNANA
19:00 11.8 8.3 79 0.0 LegendMM LegendMM   101.11     LegendNANA
20:00 12.1 8.3 77 0.0 LegendMM LegendMM   101.06     LegendNANA
21:00 12.5 9.0 79 0.0 LegendMM LegendMM   100.98     LegendNANA
22:00 12.8 9.3 80 0.0 LegendMM LegendMM   100.91     LegendNANA
23:00 13.2 10.0 81 0.0 LegendMM LegendMM   100.79     LegendNANA

Notes on Data Quality.

Legend

  • E = Estimated
  • M = Missing
  • NA = Not Available*
  • [empty] = Indicates an unobserved value
Date modified: